User: anonymous   Login
Location: Mohawk View
(42.7837°N, 73.7885°W)
Time: 20:28:05
(UTC+00:00)
Language:

Cosmos 1452 Rocket - Orbit

View from above orbital plane
View from above orbital plane
View from above satellite
View from above satellite

Ground track
Ground track

The orbit data is extracted from the following two-line orbital elements,

1 13992U 83031B   21271.58242482  .00000067  00000-0  32057-4 0  9991
2 13992  74.0554  17.4993 0005777 321.6488  38.4253 14.36241975 13104
Epoch (UTC): 28 September 2021 13:58:41
Eccentricity: 0.0005777
inclination: 74.0554°
perigee height: 767 km
apogee height: 775 km
right ascension of ascending node: 17.4993°
argument of perigee: 321.6488°
revolutions per day: 14.36241975
mean anomaly at epoch: 38.4253°
orbit number at epoch: 1310

The dashed part of the orbit path shows where the satellite is in the earth's shadow,  

DLR